Location: Duac?
(36.9744°N, 30.6500°E)
Time: 06:45:49
(UTC+00:00)

Cosmos 1459 Rocket - Pass Details

Date: 05 August 2024
Orbit: 935 x 999 km, 83.0° (Epoch: 09 September)

Event Time Altitude Azimuth Distance (km) Brightness Sun altitude
Exits shadow 20:04:23 55° 61° (ENE) 1,165 4.3 -29.5°
Drops below altitude 10° 20:09:39 10° 15° (NNE) 2,712 6.8 -30.0°
Sets 20:12:10 0° 12° (NNE) 3,652 7.6 -30.3°
